Location: Jackson
(42.2460°N, 84.4010°W)
Time: 18:03:51
(UTC-05:00)

BlueWalker 3 - Pass Details

Date: 26 January 2026
Orbit: 450 x 461 km, 53.2° (Epoch: 14 February)

Event Time Altitude Azimuth Distance (km) Brightness Sun altitude
Rises 18:51:51 0° 269° (W) 2,453 7.2 -12.6°
Reaches altitude 10° 18:54:18 10° 285° (WNW) 1,582 5.5 -13.1°
Maximum altitude 18:57:11 22° 339° (NNW) 1,022 3.6 -13.6°
Enters shadow 18:59:24 13° 26° (NNE) 1,386 3.8 -14.0°
